Change the Weather History Date:

Tuesday, September 24, 2013

  Actual Average Record
Temperature  
Mean Temperature 39 °F -  
Max Temperature 50 °F - - ()
Min Temperature 30 °F - - ()
Degree Days  
Heating Degree Days 26    
Moisture  
Dew Point 38 °F    
Average Humidity 90    
Maximum Humidity 100    
Minimum Humidity 61    
Precipitation  
Precipitation 0.14 in - - ()
Sea Level Pressure  
Sea Level Pressure 29.94 in    
Wind  
Wind Speed 7 mph (SSE)    
Max Wind Speed 21 mph    
Max Gust Speed 37 mph    
Visibility 7 miles    
Events Rain    
T = Trace of Precipitation, MM = Missing Value Source: NWS Daily Summary

Daily Weather History Graph

Daily Weather History Graph

Search for Another Location

Airport or City:

Trip Planner

Search our weather history database for the weather conditions in past years. The results will help you decide how hot, cold, wet, or windy it might be!

Date:

Astronomy

Sep. 24, 2013 Rise Set
Actual Time 7:45 AM AKDT 7:47 PM AKDT
Civil Twilight 7:02 AM AKDT 8:29 PM AKDT
Nautical Twilight 6:11 AM AKDT 9:20 PM AKDT
Astronomical Twilight 5:16 AM AKDT 10:15 PM AKDT
Moon 9:45 PM AKDT (9/24) 2:35 PM AKDT (9/24)
Length of Visible Light 13h 27m
Length of Day
12h 02m
Waning Gibbous, 72% of the Moon is Illuminated
Sep 24
Waning Gibbous
Sep 26
Last Quarter
Oct 4
New
Oct 11
First Quarter
Oct 18
Full

Hourly Weather History & Observations

Time (AKDT) Temp. Windchill Dew Point Humidity Pressure Visibility Wind Dir Wind Speed Gust Speed Precip Events Conditions
12:53 AM 34.0 °F 28.0 °F 33.1 °F 96% 29.76 in 10.0 mi West 6.9 mph - N/A   Clear
1:53 AM 34.0 °F 28.0 °F 33.1 °F 96% 29.78 in 10.0 mi West 6.9 mph - N/A   Partly Cloudy
2:53 AM 32.0 °F 26.4 °F 30.9 °F 96% 29.80 in 10.0 mi West 5.8 mph - N/A   Clear
3:53 AM 32.0 °F 26.4 °F 32.0 °F 100% 29.83 in 10.0 mi WNW 5.8 mph - N/A   Clear
4:53 AM 32.0 °F 26.4 °F 32.0 °F 100% 29.86 in 10.0 mi West 5.8 mph - N/A   Partly Cloudy
5:53 AM 32.0 °F 27.5 °F 32.0 °F 100% 29.88 in 10.0 mi WNW 4.6 mph - N/A   Mostly Cloudy
6:53 AM 32.0 °F 27.5 °F 32.0 °F 100% 29.91 in 10.0 mi WNW 4.6 mph - N/A   Mostly Cloudy
7:53 AM 30.0 °F 25.2 °F 30.0 °F 100% 29.94 in 10.0 mi WNW 4.6 mph - N/A   Mostly Cloudy
8:53 AM 30.0 °F - 28.9 °F 96% 29.95 in 10.0 mi Calm Calm - N/A   Clear
9:53 AM 34.0 °F - 32.0 °F 92% 29.96 in 10.0 mi Calm Calm - N/A   Clear
10:53 AM 37.0 °F - 34.0 °F 89% 29.97 in 10.0 mi Calm Calm - N/A   Clear
11:53 AM 37.9 °F 35.5 °F 34.0 °F 86% 29.99 in 10.0 mi ESE 3.5 mph - N/A   Mostly Cloudy
12:53 PM 39.9 °F 36.7 °F 35.1 °F 83% 29.99 in 10.0 mi East 4.6 mph - N/A   Overcast
1:53 PM 42.1 °F 39.2 °F 34.0 °F 73% 30.00 in 10.0 mi ESE 4.6 mph - N/A   Overcast
2:53 PM 48.0 °F - 35.1 °F 61% 30.00 in 10.0 mi East 6.9 mph - N/A   Overcast
3:53 PM 48.0 °F - 36.0 °F 63% 30.00 in 10.0 mi SE 6.9 mph - N/A   Overcast
4:53 PM 46.9 °F - 37.0 °F 68% 30.00 in 10.0 mi SE 6.9 mph - 0.00 in   Overcast
5:53 PM 46.0 °F 41.4 °F 37.0 °F 71% 30.00 in 10.0 mi SE 9.2 mph 19.6 mph N/A   Overcast
6:49 PM 44.6 °F 39.2 °F 39.2 °F 81% 29.99 in 4.0 mi SE 10.4 mph 19.6 mph 0.00 in Rain Light Rain
6:53 PM 45.0 °F 40.1 °F 39.9 °F 82% 30.00 in 4.0 mi SSE 9.2 mph 19.6 mph 0.00 in Rain Light Rain
7:33 PM 44.1 °F 38.6 °F 42.1 °F 93% 29.99 in 5.0 mi SSE 10.4 mph 20.7 mph 0.00 in Rain Light Rain
7:53 PM 44.1 °F 37.7 °F 42.1 °F 93% 29.99 in 5.0 mi SSE 12.7 mph 20.7 mph 0.00 in Rain Light Rain
8:39 PM 44.1 °F 37.7 °F 43.0 °F 96% 29.97 in 8.0 mi SSE 12.7 mph 24.2 mph 0.02 in Rain Light Rain
8:53 PM 44.1 °F 37.7 °F 43.0 °F 96% 29.98 in 5.0 mi SSE 12.7 mph 24.2 mph 0.02 in Rain Light Rain
9:37 PM 44.1 °F 37.7 °F 43.0 °F 96% 29.96 in 3.0 mi SSE 12.7 mph 20.7 mph 0.02 in Rain Light Rain
9:51 PM 44.6 °F 38.4 °F 42.8 °F 93% 29.94 in 3.0 mi SSE 12.7 mph 24.2 mph 0.04 in Rain Light Rain
9:53 PM 44.1 °F 37.4 °F 43.0 °F 96% 29.94 in 3.0 mi South 13.8 mph 25.3 mph 0.04 in Rain Light Rain
10:03 PM 44.1 °F 37.7 °F 43.0 °F 96% 29.94 in 2.5 mi SSE 12.7 mph 23.0 mph 0.01 in Rain Light Rain
10:24 PM 45.0 °F 38.9 °F 44.1 °F 97% 29.94 in 3.0 mi SSE 12.7 mph 27.6 mph 0.02 in Rain Light Rain
10:33 PM 46.0 °F 40.6 °F 44.1 °F 93% 29.94 in 2.5 mi SE 11.5 mph 20.7 mph 0.04 in Rain Light Rain
10:40 PM 45.0 °F 38.5 °F 44.1 °F 97% 29.93 in 5.0 mi SSE 13.8 mph 24.2 mph 0.04 in Rain Light Rain
10:53 PM 46.0 °F 39.6 °F 44.1 °F 93% 29.92 in 4.0 mi SSE 15.0 mph 25.3 mph 0.04 in Rain Light Rain
11:22 PM 46.9 °F - 44.1 °F 90% 29.91 in 4.0 mi SE 20.7 mph 36.8 mph 0.02 in Rain Light Rain
11:53 PM 46.9 °F - 45.0 °F 93% 29.88 in 5.0 mi SE 16.1 mph 33.4 mph 0.04 in Rain Light Rain